Time,TemperatureF,DewpointF,PressureIn,WindDirection,WindDirectionDegrees,WindSpeedMPH,WindSpeedGustMPH,Humidity,HourlyPrecipIn,Conditions,Clouds,dailyrainin,SoftwareType,DateUTC
2013-03-19 00:00:00,30.2,28.2,29.81,NE,45,0.0,-999.0,92,-99.99,,,0.00,Acu-Link.com,2013-03-19 04:00:00,
2013-03-19 00:15:00,30.2,28.2,29.80,NE,45,0.0,-999.0,92,-99.99,,,0.00,Acu-Link.com,2013-03-19 04:15:00,
2013-03-19 00:31:00,30.4,28.4,29.80,NE,45,0.0,-999.0,92,-99.99,,,0.00,Acu-Link.com,2013-03-19 04:31:00,
2013-03-19 01:01:00,30.7,28.7,29.78,NE,45,0.0,-999.0,92,-99.99,,,0.00,Acu-Link.com,2013-03-19 05:01:00,
2013-03-19 01:16:00,30.7,28.7,29.76,NE,45,0.0,-999.0,92,-99.99,,,0.00,Acu-Link.com,2013-03-19 05:16:00,
2013-03-19 01:32:00,30.7,28.7,29.76,NE,45,0.0,-999.0,92,-99.99,,,0.00,Acu-Link.com,2013-03-19 05:32:00,
2013-03-19 01:47:00,30.9,28.9,29.75,NE,45,0.0,-999.0,92,-99.99,,,0.00,Acu-Link.com,2013-03-19 05:47:00,
2013-03-19 02:02:00,30.9,28.9,29.75,NE,45,0.0,-999.0,92,-99.99,,,0.00,Acu-Link.com,2013-03-19 06:02:00,
2013-03-19 02:18:00,31.1,29.1,29.74,NE,45,0.0,-999.0,92,-99.99,,,0.00,Acu-Link.com,2013-03-19 06:18:00,
2013-03-19 02:33:00,31.1,29.1,29.74,NE,45,0.0,-999.0,92,-99.99,,,0.00,Acu-Link.com,2013-03-19 06:33:00,
2013-03-19 02:48:00,31.1,29.1,29.73,NE,45,0.0,-999.0,92,-99.99,,,0.00,Acu-Link.com,2013-03-19 06:48:00,
2013-03-19 03:03:00,31.1,29.1,29.73,NE,45,0.0,-999.0,92,-99.99,,,0.00,Acu-Link.com,2013-03-19 07:03:00,
2013-03-19 03:19:00,31.3,29.3,29.72,NE,45,0.0,-999.0,92,-99.99,,,0.00,Acu-Link.com,2013-03-19 07:19:00,
2013-03-19 03:34:00,31.5,29.4,29.71,NE,45,0.0,-999.0,92,-99.99,,,0.00,Acu-Link.com,2013-03-19 07:34:00,
2013-03-19 03:49:00,31.6,29.5,29.70,NE,45,0.0,-999.0,92,-99.99,,,0.00,Acu-Link.com,2013-03-19 07:49:00,
2013-03-19 04:04:00,31.6,29.8,29.69,NE,45,0.0,-999.0,93,-99.99,,,0.00,Acu-Link.com,2013-03-19 08:04:00,
2013-03-19 04:20:00,31.8,30.0,29.69,NE,45,0.0,-999.0,93,-99.99,,,0.00,Acu-Link.com,2013-03-19 08:20:00,
2013-03-19 04:35:00,31.8,30.0,29.68,NE,45,0.0,-999.0,93,-99.99,,,0.00,Acu-Link.com,2013-03-19 08:35:00,
2013-03-19 04:50:00,31.8,30.0,29.68,NE,45,0.0,-999.0,93,-99.99,,,0.00,Acu-Link.com,2013-03-19 08:50:00,
2013-03-19 05:05:00,31.8,30.0,29.67,NE,45,0.0,-999.0,93,-99.99,,,0.00,Acu-Link.com,2013-03-19 09:05:00,
2013-03-19 05:21:00,31.8,30.0,29.67,NE,45,0.0,-999.0,93,-99.99,,,0.00,Acu-Link.com,2013-03-19 09:21:00,
2013-03-19 05:51:00,32.0,30.2,29.65,NE,45,0.0,-999.0,93,-99.99,,,0.00,Acu-Link.com,2013-03-19 09:51:00,
2013-03-19 06:06:00,32.0,30.2,29.65,NE,45,0.0,-999.0,93,-99.99,,,0.00,Acu-Link.com,2013-03-19 10:06:00,
2013-03-19 06:21:00,32.0,30.2,29.66,NE,45,0.0,-999.0,93,-99.99,,,0.00,Acu-Link.com,2013-03-19 10:21:00,
2013-03-19 06:37:00,32.4,30.6,29.67,SSE,157,0.0,-999.0,93,-99.99,,,0.00,Acu-Link.com,2013-03-19 10:37:00,
2013-03-19 06:52:00,32.4,30.9,29.66,SSE,157,0.0,-999.0,94,-99.99,,,0.00,Acu-Link.com,2013-03-19 10:52:00,
2013-03-19 07:07:00,32.4,30.9,29.68,SSE,157,0.0,-999.0,94,-99.99,,,0.00,Acu-Link.com,2013-03-19 11:07:00,
2013-03-19 07:22:00,32.4,30.9,29.69,SSE,157,0.0,-999.0,94,-99.99,,,0.00,Acu-Link.com,2013-03-19 11:22:00,
2013-03-19 07:38:00,32.4,30.9,29.70,SSE,157,0.0,-999.0,94,-99.99,,,0.00,Acu-Link.com,2013-03-19 11:38:00,
2013-03-19 07:53:00,32.4,30.9,29.70,SSE,157,0.0,-999.0,94,-99.99,,,0.00,Acu-Link.com,2013-03-19 11:53:00,
2013-03-19 08:08:00,32.5,31.0,29.69,SSE,157,0.0,-999.0,94,-99.99,,,0.00,Acu-Link.com,2013-03-19 12:08:00,
2013-03-19 08:24:00,32.7,31.2,29.69,SSE,157,0.0,-999.0,94,-99.99,,,0.02,Acu-Link.com,2013-03-19 12:24:00,
2013-03-19 08:39:00,33.6,31.8,29.70,SSE,157,0.0,-999.0,93,-99.99,,,0.02,Acu-Link.com,2013-03-19 12:39:00,
2013-03-19 08:54:00,33.8,31.7,29.69,SSE,157,0.0,-999.0,92,-99.99,,,0.02,Acu-Link.com,2013-03-19 12:54:00,
2013-03-19 09:10:00,35.1,32.5,29.70,SSE,157,0.0,-999.0,90,-99.99,,,0.02,Acu-Link.com,2013-03-19 13:10:00,
2013-03-19 09:25:00,36.7,32.9,29.70,SSE,157,0.0,-999.0,86,-99.99,,,0.02,Acu-Link.com,2013-03-19 13:25:00,
2013-03-19 09:40:00,37.4,33.0,29.71,SSE,157,0.0,-999.0,84,-99.99,,,0.02,Acu-Link.com,2013-03-19 13:40:00,
2013-03-19 09:55:00,37.8,33.1,29.71,South,180,1.1,-999.0,83,-99.99,,,0.02,Acu-Link.com,2013-03-19 13:55:00,
2013-03-19 10:11:00,36.5,32.7,29.70,SSW,202,0.0,-999.0,86,-99.99,,,0.02,Acu-Link.com,2013-03-19 14:11:00,
2013-03-19 10:56:00,38.1,32.8,29.69,WNW,292,3.2,-999.0,81,-99.99,,,0.02,Acu-Link.com,2013-03-19 14:56:00,
2013-03-19 11:27:00,42.8,34.4,29.66,WNW,292,1.7,-999.0,72,-99.99,,,0.10,Acu-Link.com,2013-03-19 15:27:00,
2013-03-19 11:42:00,39.9,33.6,29.65,ESE,112,1.7,-999.0,78,-99.99,,,0.17,Acu-Link.com,2013-03-19 15:42:00,
2013-03-19 11:57:00,41.0,34.4,29.65,ESE,112,2.7,-999.0,77,-99.99,,,0.20,Acu-Link.com,2013-03-19 15:57:00,
2013-03-19 12:12:00,40.5,33.5,29.65,WNW,292,2.7,-999.0,76,-99.99,,,0.22,Acu-Link.com,2013-03-19 16:12:00,
2013-03-19 12:28:00,43.7,34.2,29.64,NW,315,1.7,-999.0,69,-99.99,,,0.23,Acu-Link.com,2013-03-19 16:28:00,
2013-03-19 12:43:00,42.1,33.7,29.64,NW,315,2.2,-999.0,72,-99.99,,,0.25,Acu-Link.com,2013-03-19 16:43:00,
2013-03-19 12:58:00,43.3,34.5,29.64,NW,315,2.2,-999.0,71,-99.99,,,0.26,Acu-Link.com,2013-03-19 16:58:00,
2013-03-19 13:13:00,44.2,35.0,29.63,NE,45,1.7,-999.0,70,-99.99,,,0.27,Acu-Link.com,2013-03-19 17:13:00,
2013-03-19 13:29:00,42.3,33.9,29.63,WNW,292,0.0,-999.0,72,-99.99,,,0.27,Acu-Link.com,2013-03-19 17:29:00,
2013-03-19 13:44:00,45.9,34.4,29.62,ESE,112,3.7,-999.0,64,-99.99,,,0.28,Acu-Link.com,2013-03-19 17:44:00,
2013-03-19 13:59:00,45.1,32.9,29.61,ESE,112,1.1,-999.0,62,-99.99,,,0.28,Acu-Link.com,2013-03-19 17:59:00,
2013-03-19 14:14:00,45.5,32.4,29.60,SSW,202,2.2,-999.0,60,-99.99,,,0.28,Acu-Link.com,2013-03-19 18:14:00,
2013-03-19 14:30:00,44.2,32.0,29.60,SSW,202,1.7,-999.0,62,-99.99,,,0.28,Acu-Link.com,2013-03-19 18:30:00,
2013-03-19 15:00:00,45.9,33.2,29.59,SSW,202,2.7,-999.0,61,-99.99,,,0.28,Acu-Link.com,2013-03-19 19:00:00,
2013-03-19 15:16:00,45.3,32.7,29.59,SSW,202,0.0,-999.0,61,-99.99,,,0.28,Acu-Link.com,2013-03-19 19:16:00,
2013-03-19 15:46:00,45.1,32.5,29.59,West,270,3.7,-999.0,61,-99.99,,,0.28,Acu-Link.com,2013-03-19 19:46:00,
2013-03-19 16:02:00,45.5,32.4,29.59,West,270,2.7,-999.0,60,-99.99,,,0.28,Acu-Link.com,2013-03-19 20:02:00,
2013-03-19 16:17:00,46.2,33.1,29.59,WSW,247,3.7,-999.0,60,-99.99,,,0.28,Acu-Link.com,2013-03-19 20:17:00,
2013-03-19 16:32:00,46.4,30.2,29.58,WSW,247,2.7,-999.0,53,-99.99,,,0.28,Acu-Link.com,2013-03-19 20:32:00,
2013-03-19 16:47:00,45.0,30.3,29.60,West,270,4.2,-999.0,56,-99.99,,,0.28,Acu-Link.com,2013-03-19 20:47:00,
2013-03-19 17:02:00,44.8,29.6,29.59,WNW,292,2.2,-999.0,55,-99.99,,,0.28,Acu-Link.com,2013-03-19 21:02:00,
2013-03-19 17:17:00,45.7,30.5,29.60,West,270,2.2,-999.0,55,-99.99,,,0.28,Acu-Link.com,2013-03-19 21:17:00,
2013-03-19 17:32:00,47.5,33.0,29.60,West,270,3.2,-999.0,57,-99.99,,,0.28,Acu-Link.com,2013-03-19 21:32:00,
2013-03-19 17:48:00,45.5,28.0,29.61,WSW,247,4.2,-999.0,50,-99.99,,,0.28,Acu-Link.com,2013-03-19 21:48:00,
2013-03-19 18:03:00,44.6,25.6,29.64,South,180,7.8,-999.0,47,-99.99,,,0.28,Acu-Link.com,2013-03-19 22:03:00,
2013-03-19 18:18:00,43.5,24.6,29.65,WNW,292,5.3,-999.0,47,-99.99,,,0.28,Acu-Link.com,2013-03-19 22:18:00,
2013-03-19 18:33:00,41.7,22.5,29.67,West,270,8.3,-999.0,46,-99.99,,,0.28,Acu-Link.com,2013-03-19 22:33:00,
2013-03-19 18:48:00,40.5,21.9,29.69,West,270,7.8,-999.0,47,-99.99,,,0.28,Acu-Link.com,2013-03-19 22:48:00,
2013-03-19 19:03:00,39.6,21.5,29.71,West,270,8.9,-999.0,48,-99.99,,,0.28,Acu-Link.com,2013-03-19 23:03:00,
2013-03-19 19:18:00,37.9,19.5,29.72,NW,315,5.3,-999.0,47,-99.99,,,0.28,Acu-Link.com,2013-03-19 23:18:00,
2013-03-19 19:33:00,37.0,17.7,29.73,West,270,6.8,-999.0,45,-99.99,,,0.28,Acu-Link.com,2013-03-19 23:33:00,
2013-03-19 19:49:00,36.5,17.7,29.73,SSW,202,4.7,-999.0,46,-99.99,,,0.28,Acu-Link.com,2013-03-19 23:49:00,
2013-03-19 20:04:00,36.1,19.3,29.73,NW,315,2.7,-999.0,50,-99.99,,,0.28,Acu-Link.com,2013-03-20 00:04:00,
2013-03-19 20:19:00,35.8,19.0,29.73,WNW,292,3.2,-999.0,50,-99.99,,,0.28,Acu-Link.com,2013-03-20 00:19:00,
2013-03-19 20:34:00,35.4,18.6,29.74,WNW,292,5.8,-999.0,50,-99.99,,,0.28,Acu-Link.com,2013-03-20 00:34:00,
2013-03-19 20:50:00,35.2,18.0,29.75,NW,315,2.7,-999.0,49,-99.99,,,0.28,Acu-Link.com,2013-03-20 00:50:00,
2013-03-19 21:05:00,34.7,18.0,29.76,NNW,337,3.7,-999.0,50,-99.99,,,0.28,Acu-Link.com,2013-03-20 01:05:00,
2013-03-19 21:20:00,34.0,20.4,29.77,West,270,3.7,-999.0,57,-99.99,,,0.28,Acu-Link.com,2013-03-20 01:20:00,
2013-03-19 21:35:00,33.6,19.6,29.77,WSW,247,3.7,-999.0,56,-99.99,,,0.28,Acu-Link.com,2013-03-20 01:35:00,
2013-03-19 21:51:00,33.1,20.4,29.77,West,270,3.7,-999.0,59,-99.99,,,0.28,Acu-Link.com,2013-03-20 01:51:00,
2013-03-19 22:06:00,32.4,20.9,29.77,West,270,3.2,-999.0,62,-99.99,,,0.28,Acu-Link.com,2013-03-20 02:06:00,
2013-03-19 22:21:00,32.4,21.2,29.77,West,270,2.7,-999.0,63,-99.99,,,0.28,Acu-Link.com,2013-03-20 02:21:00,
2013-03-19 22:36:00,32.2,21.4,29.77,West,270,4.7,-999.0,64,-99.99,,,0.28,Acu-Link.com,2013-03-20 02:36:00,
2013-03-19 23:07:00,31.6,20.8,29.78,West,270,4.2,-999.0,64,-99.99,,,0.28,Acu-Link.com,2013-03-20 03:07:00,
2013-03-19 23:22:00,31.6,20.1,29.78,West,270,5.8,-999.0,62,-99.99,,,0.28,Acu-Link.com,2013-03-20 03:22:00,
2013-03-19 23:53:00,29.3,23.0,29.79,NNW,337,3.7,-999.0,77,-99.99,,,0.28,Acu-Link.com,2013-03-20 03:53:00,